Notices

What's New in latest Release from April 7th, 2021:

- Updated Glossary, including Speed of Maximum Gust, and Total Hourly Precipitation

- Updated national and regional climate services offices contacts and prices information

- Addition of station inventory lists for 1981-2010, 1971-2000, and 1961-1990 Normals.

If you haven't already, please take our survey and provide feedback about our website: https://eccc.sondage-survey.ca/f/LanguageSelection.aspx?s=442ca660-fcf1-47c0-95a9-59707d6fd709

Hourly Data Report for March 20, 2006

TORONTO CITY
ONTARIO

43°40'00.000" N
79°24'00.000" W
112.50 m
6158355
71508
XTO

Download Data

Hourly Data (March 2006)
Hourly Data Report for March 20, 2006
TIME
LST
Temp Definition
°C
Dew Point Definition
°C
Rel Hum Definition
%
Precip. Amount Definition
mm

Wind Dir Definition
10's deg

Wind Spd Definition
km/h
Visibility Definition
km
Stn Press Definition
kPa
Hmdx Definition


Wind Chill Definition


Weather Definition


00:00 -1.3 -7.4 63   LegendMM LegendMM   100.61     LegendNANA
01:00 -2.2 -6.0 75   LegendMM LegendMM   100.62     LegendNANA
02:00 -1.9 -5.8 75   LegendMM LegendMM   100.63     LegendNANA
03:00 -1.7 -7.3 66   LegendMM LegendMM   100.63     LegendNANA
04:00 -2.8 -10.1 57   LegendMM LegendMM   100.69     LegendNANA
05:00 -3.7 -9.8 63   LegendMM LegendMM   100.82     LegendNANA
06:00 -4.6 -10.5 63   LegendMM LegendMM   100.88     LegendNANA
07:00 -5.2 -11.4 62   LegendMM LegendMM   100.95     LegendNANA
08:00 -4.8 -11.5 59   LegendMM LegendMM   100.90     LegendNANA
09:00 -3.8 -11.2 56   LegendMM LegendMM   100.93     LegendNANA
10:00 -2.9 -11.2 53   LegendMM LegendMM   100.98     LegendNANA
11:00 -2.1 -11.5 49   LegendMM LegendMM   100.96     LegendNANA
12:00 -0.9 -11.6 44   LegendMM LegendMM   100.96     LegendNANA
13:00 -1.3 -13.2 40   LegendMM LegendMM   100.95     LegendNANA
14:00 -1.0 -12.0 43   LegendMM LegendMM   100.86     LegendNANA
15:00 -1.1 -12.4 42   LegendMM LegendMM   100.89     LegendNANA
16:00 -1.7 -12.3 44   LegendMM LegendMM   100.93     LegendNANA
17:00 -2.1 -12.8 44   LegendMM LegendMM   100.90     LegendNANA
18:00 -3.0 -12.1 49   LegendMM LegendMM   100.91     LegendNANA
19:00 -4.0 -11.7 55   LegendMM LegendMM   100.92     LegendNANA
20:00 -4.4 -10.8 61   LegendMM LegendMM   101.00     LegendNANA
21:00 -4.3 -10.4 62   LegendMM LegendMM   101.01     LegendNANA
22:00 -4.5 -10.1 65   LegendMM LegendMM   100.95     LegendNANA
23:00 -4.9 -10.4 65   LegendMM LegendMM   100.90     LegendNANA

Notes on Data Quality.

Legend

  • E = Estimated
  • M = Missing
  • NA = Not Available*
  • [empty] = Indicates an unobserved value
Date modified: